{"data":{"norad_id":60147,"epoch":"2026-05-25T04:49:09.760224Z","epoch_age_seconds":47809,"freshness":"FRESH","line1":"1 60147U 24120N   26145.20080741  .00000307  00000+0  22488-4 0  9994","line2":"2 60147  53.1617 324.3060 0000966 101.5519 258.5590 15.30191681108091","mean_motion":15.30191681,"eccentricity":9.66e-5,"inclination_deg":53.1617,"raan_deg":324.306,"arg_perigee_deg":101.5519,"mean_anomaly_deg":258.559,"bstar":2.2488e-5,"rev_number":10809,"period_min":94.1058573171,"perigee_km":474.57787235698,"apogee_km":475.90194477571,"semimajor_km":6853.3769085663,"source":"CELESTRAK","updated_at":"2026-05-25T13:38:19.190377Z"}}